FW4785 Weather Reports


time (UTC)temp
C
wind
direction
speed
KPH
gust
KPH
rain 1hr
cm
rain 24hr
cm
rain mn
cm
humidity
%
barometer
mb
20260502130420 13 351 17.7 25.7 0.00 3.45 0.08 89 1018.6
20260502123402 12 343 12.9 17.7 0.00 3.45 0.08 94 1018.2
20260502122902 12 348 11.3 17.7 0.00 3.45 0.08 94 1018.1
20260502122402 12 351 11.3 16.1 0.00 3.45 0.08 94 1018.0
20260502121903 12 336 9.7 16.1 0.00 3.45 0.08 94 1018.0
20260502121402 12 340 9.7 14.5 0.00 3.45 0.08 94 1017.9
20260502120902 12 0 9.7 14.5 0.00 3.45 0.08 94 1017.8
20260502120403 12 344 9.7 16.1 0.00 3.45 0.08 93 1017.7
20260502120132 12 346 9.7 16.1 0.00 3.45 0.08 93 1017.5
20260502115624 12 347 9.7 14.5 0.00 3.45 0.08 93 1017.5
20260502114901 12 343 8.0 14.5 0.00 3.45 0.08 93 1017.4
20260502114401 12 342 8.0 16.1 0.00 3.45 0.08 93 1017.3
20260502113902 12 0 8.0 16.1 0.00 3.45 0.08 93 1017.4
20260502113401 12 340 8.0 12.9 0.00 3.45 0.08 92 1017.3
20260502112903 12 351 8.0 12.9 0.00 3.45 0.08 92 1017.2
20260502112402 12 351 9.7 17.7 0.00 3.45 0.08 92 1017.1
20260502111857 13 347 11.3 17.7 0.00 3.45 0.08 92 1016.9
20260502111351 13 346 11.3 16.1 0.00 3.45 0.08 92 1016.9
20260502111114 13 343 11.3 16.1 0.00 3.45 0.08 92 1016.8
20260502110340 13 343 9.7 14.5 0.00 3.45 0.08 92 1016.7
20260502105833 13 345 9.7 14.5 0.00 3.45 0.08 92 1016.6
20260502105331 13 9 9.7 16.1 0.00 3.45 0.08 92 1016.6
20260502104832 13 34 11.3 16.1 0.00 3.45 0.08 92 1016.4
20260502104331 13 14 11.3 19.3 0.00 3.45 0.08 92 1016.4
20260502104101 13 18 12.9 20.9 0.00 3.45 0.08 91 1016.5
20260502103332 13 11 14.5 20.9 0.00 3.45 0.08 91 1016.3
20260502102830 13 0 12.9 20.9 0.00 3.45 0.08 91 1016.2
20260502102330 13 5 11.3 20.9 0.00 3.45 0.08 91 1016.1
20260502102049 13 40 11.3 20.9 0.00 3.45 0.08 91 1016.0
20260502101331 13 30 14.5 20.9 0.00 3.45 0.08 91 1015.9
20260502101327 13 46 14.5 20.9 0.00 3.45 0.08 91 1015.8
20260502100334 13 14 14.5 20.9 0.00 3.45 0.08 92 1015.8
20260502091330 13 0 17.7 24.1 0.03 3.45 0.08 92 1015.6
20260502090830 13 0 14.5 22.5 0.03 3.45 0.08 93 1015.7
20260502090329 13 31 12.9 20.9 0.03 3.45 0.08 93 1015.5
20260502070829 13 14 20.9 29.0 0.03 3.43 0.05 92 1015.4
20260502070334 13 5 17.7 29.0 0.03 3.43 0.05 93 1015.4
20260502065829 13 0 17.7 30.6 0.03 3.43 0.05 93 1015.5
20260502065330 13 0 19.3 30.6 0.03 3.43 0.05 93 1015.4
20260502064829 13 15 19.3 27.4 0.03 3.43 0.05 93 1015.3
20260502064329 13 0 20.9 27.4 0.03 3.43 0.05 93 1015.2
20260502063828 13 15 19.3 27.4 0.03 3.43 0.03 93 1015.1
20260502063329 13 0 19.3 25.7 0.00 3.40 0.03 93 1015.1
20260502062829 13 355 19.3 29.0 0.03 3.40 0.03 93 1015.0
20260502062554 13 9 20.9 30.6 0.03 3.40 0.03 93 1014.9
20260502062100 13 19 22.5 32.2 0.03 3.40 0.03 93 1014.8
20260502061329 13 25 20.9 32.2 0.03 3.40 0.03 93 1014.7
20260502060829 13 22 20.9 32.2 0.03 3.40 0.03 94 1014.8
20260502060329 13 5 19.3 32.2 0.03 3.40 0.03 93 1014.7
20260502055830 13 36 17.7 27.4 0.03 3.40 0.03 94 1014.6
20260502055329 13 10 16.1 27.4 0.03 3.40 0.03 94 1014.5
20260502054832 13 24 16.1 27.4 0.03 3.40 0.03 94 1014.4
20260502054559 13 48 17.7 27.4 0.03 3.40 0.03 94 1014.3
20260502053831 14 37 17.7 25.7 0.05 3.40 0.03 94 1014.2
20260502053332 14 19 17.7 29.0 0.05 3.40 0.03 94 1014.2
20260502052831 14 19 19.3 30.6 0.03 3.38 0.00 94 1014.2
20260502052332 14 355 20.9 30.6 0.03 3.38 0.00 94 1014.2
20260502051830 14 9 22.5 35.4 0.03 3.38 0.00 94 1014.3
20260502051330 14 11 20.9 35.4 0.03 3.38 0.00 94 1014.2
20260502050829 14 0 17.7 25.7 0.03 3.38 0.00 94 1014.3
20260502050330 14 22 20.9 33.8 0.03 3.38 0.00 94 1014.3
20260502045829 14 348 24.1 38.6 0.05 3.38 3.38 93 1014.1
20260502045329 14 9 24.1 38.6 0.05 3.38 3.38 93 1014.0
20260502044829 14 17 25.7 35.4 0.05 3.38 3.38 94 1014.0
20260502044337 14 344 25.7 40.2 0.03 3.35 3.35 94 1014.0
20260502044329 14 9 25.7 40.2 0.05 3.38 3.38 94 1014.0
20260502043329 14 5 24.1 35.4 0.03 3.35 3.35 94 1014.0
20260502042829 15 355 24.1 38.6 0.03 3.35 3.35 94 1013.9
20260502042329 15 355 27.4 38.6 0.05 3.35 3.35 94 1013.9
20260502041829 15 26 25.7 37.0 0.05 3.35 3.35 94 1013.8
20260502041330 15 22 20.9 37.0 0.05 3.35 3.35 94 1013.9
20260502040832 15 25 19.3 25.7 0.05 3.35 3.35 95 1013.7
20260502040331 15 15 19.3 30.6 0.05 3.35 3.33 95 1013.7
20260502040057 15 5 20.9 30.6 0.05 3.33 3.33 95 1013.6
20260502035331 15 5 17.7 30.6 0.05 3.33 3.33 95 1013.7
20260502034832 15 355 19.3 27.4 0.05 3.33 3.33 95 1013.8
20260502034331 15 24 20.9 27.4 0.05 3.33 3.33 95 1013.8
20260502033832 15 355 20.9 32.2 0.05 3.33 3.33 95 1013.8
20260502033332 15 13 22.5 33.8 0.08 3.33 3.33 95 1013.8
20260502032831 15 26 20.9 33.8 0.08 3.33 3.33 95 1013.6
20260502032601 15 21 19.3 30.6 0.05 3.30 3.30 95 1013.5
20260502031832 15 350 19.3 25.7 0.05 3.30 3.30 95 1013.3
20260502031335 15 355 17.7 25.7 0.05 3.30 3.30 96 1013.1
20260502030834 15 30 19.3 30.6 0.08 3.30 3.30 96 1013.0
20260502030335 15 44 19.3 30.6 0.08 3.30 3.30 96 1012.9
20260502030104 15 49 16.1 27.4 0.05 3.28 3.28 96 1012.6
20260502025331 15 5 16.1 25.7 0.08 3.28 3.28 96 1012.6
20260502024829 15 350 17.7 24.1 0.08 3.28 3.28 96 1012.6
20260502024329 15 5 16.1 22.5 0.08 3.28 3.28 96 1012.5
20260502023829 15 26 14.5 22.5 0.10 3.28 3.28 96 1012.5
20260502023329 15 26 16.1 25.7 0.08 3.25 3.25 96 1012.4
20260502022829 15 21 16.1 25.7 0.08 3.25 3.25 96 1012.4
20260502022329 15 27 16.1 25.7 0.08 3.25 3.25 96 1012.3
20260502022054 15 17 17.7 29.0 0.10 3.25 3.25 96 1012.2
20260502021823 15 39 16.1 27.4 0.08 3.23 3.23 96 1011.8
20260502021536 15 34 17.7 29.0 0.10 3.25 3.23 96 1012.3
20260502020329 15 65 14.5 24.1 0.10 3.23 3.23 96 1011.7
20260502015830 15 15 14.5 29.0 0.10 3.23 3.23 96 1011.9
20260502015329 15 36 16.1 29.0 0.08 3.20 3.20 96 1011.6
20260502014835 15 53 16.1 27.4 0.10 3.20 3.20 96 1011.6
20260502014335 15 30 17.7 27.4 0.10 3.23 3.20 96 1011.5
20260502013835 15 32 19.3 27.4 0.10 3.23 3.17 96 1011.6
20260502013325 15 5 19.3 27.4 0.10 3.30 3.17 96 1011.6
20260502012819 15 0 19.3 29.0 0.10 3.48 3.17 96 1011.1
20260502012312 16 47 22.5 32.2 0.13 3.51 3.15 96 1011.2
20260502011811 16 5 20.9 32.2 0.10 3.48 3.15 96 1011.5
20260502011303 16 30 19.3 27.4 0.13 3.56 3.15 96 1011.7
20260502011037 16 326 20.9 29.0 0.13 3.56 3.12 96 1011.8
20260502010303 16 344 19.3 29.0 0.13 3.53 3.12 96 1011.9
20260502005804 16 351 19.3 29.0 0.13 3.53 3.12 96 1011.7
20260502005306 16 355 22.5 29.0 0.13 3.51 3.10 96 1011.5
20260502004804 16 355 25.7 37.0 0.13 3.51 3.10 96 1011.1
20260502004303 16 5 24.1 37.0 0.15 3.51 3.10 96 1010.7
20260502003803 16 333 20.9 32.2 0.13 3.48 3.07 96 1010.5
20260502003755 16 337 19.3 30.6 0.15 3.48 3.07 96 1010.5
20260502002804 16 355 20.9 30.6 0.15 3.48 3.05 96 1010.5
20260502002305 16 355 22.5 33.8 0.15 3.45 3.05 96 1010.2
20260502001803 16 9 24.1 33.8 0.15 3.45 3.05 96 1010.1
20260502001308 16 24 24.1 37.0 0.13 3.43 3.02 96 1010.3
20260502000809 16 28 24.1 37.0 0.15 3.43 3.02 96 1010.2
20260502000310 16 11 24.1 37.0 0.13 3.40 3.00 96 1010.1
20260501235806 16 14 24.1 33.8 0.15 3.40 3.00 96 1010.1
20260501235531 16 355 25.7 33.8 0.13 3.38 2.97 96 1010.2
20260501234801 16 9 27.4 38.6 0.15 3.38 2.97 96 1010.3
20260501234301 16 355 25.7 38.6 0.13 3.35 2.95 96 1009.9
20260501234030 16 338 24.1 38.6 0.15 3.35 2.92 96 1010.2
20260501233301 17 330 22.5 32.2 0.15 3.33 2.92 96 1010.3
20260501233028 16 338 20.9 32.2 0.13 3.30 2.90 96 1009.9
20260501232305 17 0 17.7 27.4 0.15 3.30 2.90 96 1008.9
20260501231801 17 14 16.1 27.4 0.18 3.30 2.90 96 1008.0
20260501231526 17 40 14.5 24.1 0.20 3.30 2.87 97 1007.6
20260501230801 17 38 16.1 25.7 0.20 3.28 2.87 97 1007.6
20260501230301 17 35 17.7 25.7 0.23 3.28 2.87 97 1007.3
20260501225801 17 5 16.1 24.1 0.23 3.25 2.84 97 1007.3
20260501225301 17 23 16.1 27.4 0.25 3.25 2.84 97 1007.3
20260501224800 17 15 17.7 30.6 0.25 3.23 2.82 97 1007.1
20260501224301 17 13 17.7 30.6 0.30 3.23 2.82 97 1007.2
20260501223801 17 32 17.7 27.4 0.30 3.20 2.79 97 1007.6
20260501223301 17 49 17.7 30.6 0.33 3.17 2.77 97 1007.6
20260501222801 17 54 17.7 30.6 0.36 3.17 2.77 97 1007.9
20260501222301 17 18 14.5 27.4 0.38 3.15 2.74 97 1008.1
20260501221801 17 41 16.1 25.7 0.41 3.12 2.72 97 1008.3
20260501221301 17 43 17.7 25.7 0.46 3.10 2.69 97 1008.0
20260501220801 17 35 16.1 25.7 0.48 3.07 2.67 97 1007.9
20260501220301 17 24 12.9 25.7 0.53 3.05 2.64 97 1008.0
20260501215801 17 33 12.9 22.5 0.61 3.02 2.62 97 1008.2
20260501215528 17 14 11.3 19.3 0.69 3.00 2.59 97 1008.7
20260501214801 17 26 9.7 19.3 0.76 2.97 2.54 97 1008.8
20260501214301 17 34 12.9 22.5 0.81 2.92 2.51 97 1008.9
20260501213801 17 0 16.1 27.4 0.91 2.90 2.46 97 1008.6
20260501213535 17 45 16.1 27.4 0.99 2.84 2.44 97 1008.6
20260501212801 17 13 16.1 29.0 1.14 2.82 2.39 97 1008.6
20260501212301 17 26 16.1 29.0 1.24 2.77 2.34 97 1008.6
20260501211801 17 81 19.3 27.4 1.35 2.72 2.29 97 1008.2
20260501211300 17 26 17.7 27.4 1.40 2.64 2.24 97 1008.6
20260501210800 17 18 17.7 25.7 1.45 2.59 2.16 97 1008.5
20260501210301 17 355 17.7 29.0 1.50 2.49 2.08 97 1008.7
20260501205801 17 0 20.9 37.0 1.47 2.41 1.98 97 1008.6
20260501205300 17 16 22.5 37.0 1.37 2.31 1.91 97 1008.1
20260501204801 17 18 25.7 38.6 1.30 2.21 1.80 97 1008.0
20260501204301 17 5 24.1 38.6 1.19 2.11 1.68 97 1007.4
20260501203801 17 342 17.7 35.4 1.07 1.98 1.55 96 1007.9
20260501203301 17 34 16.1 29.0 0.94 1.85 1.40 97 1007.6
20260501202801 17 79 16.1 27.4 0.76 1.68 1.24 96 1006.4
20260501202301 17 59 12.9 25.7 0.61 1.52 1.07 96 1007.8
20260501201801 17 9 11.3 24.1 0.46 1.37 0.91 96 1009.7
20260501201300 17 324 14.5 25.7 0.33 1.24 0.81 96 1010.3
20260501200801 17 19 12.9 25.7 0.23 1.14 0.71 96 1007.9
20260501200301 17 46 9.7 20.9 0.08 0.99 0.56 96 1006.4
20260501195801 17 69 9.7 27.4 0.03 0.94 0.53 96 1006.3
20260501195301 18 26 11.3 30.6 0.03 0.94 0.53 96 1006.3
20260501194800 18 24 9.7 30.6 0.00 0.91 0.51 96 1005.6
20260501194301 18 43 9.7 20.9 0.03 0.91 0.51 96 1005.4
20260501194034 18 105 9.7 22.5 0.05 0.91 0.51 96 1004.8
20260501193301 18 87 11.3 27.4 0.08 0.91 0.51 96 1005.8
20260501192801 18 50 12.9 27.4 0.08 0.91 0.51 96 1006.4
20260501192534 18 61 14.5 29.0 0.08 0.91 0.51 96 1006.8
20260501191800 18 28 14.5 29.0 0.08 0.91 0.51 96 1007.1
20260501191301 18 52 11.3 20.9 0.08 0.91 0.51 96 1006.9
20260501190800 18 29 11.3 22.5 0.08 0.91 0.51 96 1006.9
20260501190300 18 38 11.3 22.5 0.08 0.91 0.51 96 1007.5
20260501185800 18 26 8.0 20.9 0.08 0.91 0.51 96 1007.7
20260501185301 18 88 9.7 22.5 0.08 0.91 0.51 96 1008.1
20260501184801 18 59 12.9 22.5 0.08 0.91 0.51 96 1008.2
20260501184300 18 19 16.1 20.9 0.05 0.89 0.48 96 1008.3
20260501183800 18 5 16.1 22.5 0.03 0.86 0.43 96 1008.6
20260501183301 18 355 14.5 22.5 0.00 0.84 0.43 96 1008.7
20260501182801 18 0 11.3 20.9 0.00 0.84 0.43 96 1008.6
20260501182301 18 13 9.7 20.9 0.00 0.84 0.43 96 1008.3
20260501181801 18 51 11.3 20.9 0.00 0.84 0.43 96 1008.3
20260501181301 18 63 9.7 20.9 0.00 0.84 0.43 96 1008.3
20260501180801 18 55 8.0 17.7 0.05 0.84 0.43 96 1008.2
20260501180304 18 35 9.7 19.3 0.10 0.84 0.43 96 1008.0
20260501175803 18 72 9.7 19.3 0.13 0.84 0.43 96 1008.1
20260501175307 18 34 11.3 19.3 0.20 0.84 0.43 96 1008.2
20260501174804 18 61 12.9 22.5 0.23 0.84 0.43 96 1008.2
20260501174301 17 27 11.3 22.5 0.33 0.84 0.43 96 1008.1
20260501173801 18 63 9.7 17.7 0.36 0.84 0.43 96 1008.2
20260501173302 18 42 9.7 22.5 0.38 0.84 0.43 96 1008.5
20260501172801 17 38 9.7 22.5 0.43 0.84 0.43 96 1008.8
20260501172525 18 84 8.0 20.9 0.43 0.84 0.43 96 1008.8
20260501171801 17 38 6.4 17.7 0.43 0.84 0.43 96 1008.8
20260501171301 17 61 6.4 17.7 0.43 0.84 0.43 95 1008.9
20260501170801 17 28 9.7 20.9 0.38 0.79 0.36 95 1009.2
20260501170301 17 56 12.9 25.7 0.33 0.74 0.30 95 1009.6
20260501165801 17 50 12.9 25.7 0.30 0.71 0.28 94 1009.8
20260501165305 18 46 11.3 25.7 0.23 0.64 0.23 94 1009.5
20260501164801 18 30 16.1 27.4 0.20 0.61 0.18 94 1009.8
20260501164532 18 42 19.3 27.4 0.10 0.51 0.10 93 1009.9
20260501163801 18 344 20.9 30.6 0.08 0.48 0.05 93 1010.0
20260501163306 18 32 20.9 30.6 0.05 0.46 0.05 92 1009.8
20260501162801 18 15 22.5 43.5 0.00 0.41 0.00 91 1009.5
20260501162301 19 34 29.0 45.1 0.00 0.41 0.00 91 1009.5
20260501161801 19 0 30.6 45.1 0.00 0.41 0.00 90 1009.9
20260501161302 20 355 25.7 37.0 0.00 0.41 0.00 90 1010.1
20260501160801 20 0 20.9 35.4 0.00 0.41 0.00 90 1010.1
20260501160302 20 336 14.5 24.1 0.00 0.41 0.00 90 1009.9
20260501160037 20 26 12.9 22.5 0.00 0.41 0.00 89 1009.8
20260501155301 20 16 11.3 22.5 0.00 0.41 0.00 90 1009.3
20260501155025 21 37 9.7 22.5 0.00 0.41 0.00 90 1009.0
20260501154301 21 58 6.4 19.3 0.00 0.41 0.00 90 1009.1
20260501154035 21 77 6.4 17.7 0.00 0.41 0.00 89 1008.9
20260501153302 21 33 6.4 17.7 0.00 0.41 0.00 90 1009.0
20260501153037 21 86 8.0 20.9 0.00 0.41 0.00 90 1008.9
20260501152531 21 55 11.3 22.5 0.00 0.41 0.00 89 1009.0
20260501152511 21 28 9.7 22.5 0.00 0.41 0.00 89 1008.9
20260501151306 21 65 9.7 22.5 0.00 0.41 0.00 89 1009.0
20260501150806 21 87 8.0 22.5 0.00 0.41 0.00 89 1008.7
20260501150301 21 78 8.0 20.9 0.00 0.41 0.00 90 1008.8
20260501145801 21 123 11.3 27.4 0.00 0.41 0.00 90 1008.9
20260501145301 21 34 11.3 27.4 0.00 0.41 0.00 90 1008.9
20260501144801 21 50 9.7 22.5 0.00 0.41 0.00 90 1009.0
20260501144301 21 62 12.9 24.1 0.00 0.41 0.00 91 1009.1